Location: Alafon
(8.4500°N, 4.2333°E)
Time: 02:59:00
(UTC+00:00)

Vanguard 2 - Pass Details

Date: 07 August 2021
Orbit: 553 x 2937 km, 32.9° (Epoch: 27 September)

Event Time Altitude Azimuth Distance (km) Brightness Sun altitude
Rises 21:34:28 0° 225° (SW) 5,900 12.1 -48.6°
Reaches altitude 10° 21:39:08 10° 220° (SW) 4,519 11.4 -49.6°
Enters shadow 21:39:44 12° 219° (SW) 4,335 11.3 -49.7°
Maximum altitude 21:50:00 47° 150° (SSE) 1,767 - -51.7°
Drops below altitude 10° 21:56:34 10° 77° (ENE) 2,778 - -52.9°
Sets 21:58:47 0° 71° (ENE) 3,499 - -53.3°
